FW4469 Weather Reports


time (UTC)temp
F
wind
direction
speed
knots
gust
knots
rain 1hr
in
rain 24hr
in
rain mn
in
humidity
%
barometer
mb
20260505230008 44 322 3.5 6.1 0.00 0.00 0.00 89 1014.6
20260505225008 45 322 3.5 8.7 0.00 0.00 0.00 86 1014.5
20260505224008 45 331 3.5 7.0 0.00 0.00 0.00 84 1014.7
20260505223008 45 336 3.5 7.8 0.00 0.00 0.00 84 1014.6
20260505222003 45 339 3.5 7.0 0.00 0.00 0.00 84 1014.6
20260505221003 45 345 3.5 7.0 0.00 0.00 0.00 83 1014.7
20260505220008 45 341 3.5 6.1 0.00 0.00 0.00 83 1014.7
20260505215003 45 341 3.5 7.0 0.00 0.00 0.00 83 1014.6
20260505214008 45 337 3.5 7.0 0.00 0.00 0.00 83 1014.7
20260505213224 45 336 3.5 7.0 0.00 0.00 0.00 83 1014.7
20260505212223 45 337 3.5 6.1 0.00 0.00 0.00 82 1014.8
20260505211003 45 336 3.5 7.8 0.00 0.00 0.00 82 1014.6
20260505210008 46 339 4.3 7.8 0.00 0.00 0.00 82 1014.5
20260505205008 46 343 3.5 7.0 0.00 0.00 0.00 81 1014.5
20260505204003 46 339 3.5 7.0 0.00 0.00 0.00 82 1014.6
20260505203003 46 337 3.5 7.0 0.00 0.00 0.00 83 1014.6
20260505202008 46 339 3.5 7.8 0.00 0.00 0.00 83 1014.7
20260505201008 46 339 3.5 8.7 0.00 0.00 0.00 83 1014.6
20260505200222 47 341 3.5 7.8 0.00 0.00 0.00 83 1014.5
20260505195003 47 343 3.5 6.1 0.00 0.00 0.00 83 1014.4
20260505194008 47 340 3.5 6.1 0.00 0.00 0.00 82 1014.2
20260505193013 47 340 3.5 7.8 0.00 0.00 0.00 82 1014.3
20260505192003 47 338 3.5 7.0 0.00 0.00 0.00 82 1014.3
20260505191009 47 336 3.5 6.1 0.00 0.00 0.00 81 1014.3
20260505190222 47 342 3.5 7.0 0.00 0.00 0.00 80 1014.1
20260505185008 47 343 3.5 7.0 0.00 0.00 0.00 79 1014.2
20260505184003 47 338 3.5 7.0 0.00 0.00 0.00 78 1014.2
20260505183009 48 340 3.5 6.1 0.00 0.00 0.00 77 1014.1
20260505182008 48 342 3.5 6.1 0.00 0.00 0.00 78 1014.0
20260505181222 48 346 3.5 7.8 0.00 0.00 0.00 77 1014.0
20260505180218 48 345 3.5 7.8 0.00 0.00 0.00 77 1013.9
20260505175008 49 342 3.5 5.2 0.00 0.00 0.00 76 1014.0
20260505174003 49 337 3.5 7.8 0.00 0.00 0.00 77 1014.1
20260505173003 49 336 3.5 8.7 0.00 0.00 0.00 75 1014.1
20260505172008 49 336 3.5 7.0 0.00 0.00 0.00 77 1014.2
20260505171008 49 338 3.5 10.4 0.00 0.00 0.00 75 1014.3
20260505170008 49 338 3.5 8.7 0.00 0.00 0.00 75 1014.4
20260505165008 50 334 3.5 7.8 0.00 0.00 0.00 75 1014.3
20260505164008 49 334 3.5 7.8 0.00 0.00 0.00 74 1014.4
20260505163009 49 331 3.5 6.1 0.00 0.00 0.00 74 1014.3
20260505162008 49 340 3.5 7.0 0.00 0.00 0.00 71 1014.5
20260505161008 49 337 3.5 7.0 0.00 0.00 0.00 73 1014.3
20260505153003 51 329 3.5 7.8 0.00 0.00 0.00 73 1014.4
20260505152008 51 341 3.5 6.1 0.00 0.00 0.00 72 1014.4
20260505151008 50 337 3.5 7.8 0.00 0.00 0.00 74 1014.4
20260505125008 49 343 3.5 6.1 0.00 0.00 0.00 74 1014.8
20260505124008 50 340 3.5 7.8 0.00 0.00 0.00 74 1014.7
20260505123003 50 338 3.5 8.7 0.00 0.00 0.00 71 1014.8
20260505122008 50 337 3.5 7.8 0.00 0.00 0.00 72 1014.5
20260505121008 50 338 4.3 10.4 0.00 0.00 0.00 74 1014.6
20260505120008 50 338 3.5 7.0 0.00 0.00 0.00 75 1014.7
20260505115003 49 337 3.5 7.8 0.00 0.00 0.00 74 1014.6
20260505114217 48 341 3.5 7.8 0.00 0.00 0.00 74 1014.8
20260505113003 48 346 3.5 7.8 0.00 0.00 0.00 79 1014.8
20260505112003 47 332 3.5 7.8 0.00 0.00 0.00 79 1015.0
20260505111003 47 337 3.5 7.0 0.00 0.00 0.00 80 1014.9
20260505110223 47 338 3.5 8.7 0.00 0.00 0.00 78 1015.0
20260505102008 49 335 3.5 7.8 0.00 0.00 0.00 67 1015.2
20260505101003 49 335 3.5 7.0 0.00 0.00 0.00 70 1015.1
20260505100008 50 332 3.5 7.0 0.00 0.00 0.00 72 1015.0
20260505095008 50 334 3.5 7.8 0.00 0.00 0.00 69 1015.0
20260505094003 50 335 3.5 7.8 0.00 0.00 0.00 69 1015.0
20260505093008 49 341 3.5 7.0 0.00 0.00 0.00 72 1015.0
20260505092003 49 332 3.5 6.1 0.00 0.00 0.00 72 1015.0
20260505091008 48 336 3.5 6.1 0.00 0.00 0.00 75 1014.9
20260505090008 48 336 3.5 7.0 0.00 0.00 0.00 76 1015.1
20260505085008 49 325 3.5 7.0 0.00 0.00 0.00 73 1015.0
20260505084003 49 319 3.5 7.8 0.00 0.00 0.00 73 1014.9
20260505083008 48 332 4.3 12.2 0.00 0.00 0.00 77 1015.0
20260505082003 48 352 5.2 12.2 0.00 0.00 0.00 72 1015.1
20260505081222 48 341 8.7 13.9 0.00 0.00 0.00 74 1015.1
20260505080008 48 347 6.1 12.2 0.00 0.00 0.00 76 1015.3
20260505075003 47 306 5.2 11.3 0.00 0.00 0.00 76 1015.2
20260505074222 47 320 3.5 10.4 0.00 0.00 0.00 79 1015.3
20260505073009 46 274 2.6 7.8 0.00 0.00 0.00 79 1015.2
20260505072003 46 328 3.5 7.0 0.00 0.00 0.00 80 1015.5
20260505071222 46 335 3.5 7.8 0.00 0.00 0.00 81 1015.2
20260505070008 45 323 3.5 8.7 0.00 0.00 0.00 81 1015.2
20260505065003 45 330 2.6 8.7 0.00 0.00 0.00 81 1015.2
20260505064008 45 220 1.7 7.0 0.00 0.00 0.00 82 1015.1
20260505063009 44 327 1.7 6.1 0.00 0.00 0.00 81 1015.1
20260505062003 44 340 2.6 8.7 0.00 0.00 0.00 80 1015.0
20260505061003 44 328 5.2 12.2 0.00 0.00 0.00 79 1015.0
20260505060008 44 3 7.0 15.6 0.00 0.00 0.00 78 1015.0
20260505055003 44 346 8.7 14.8 0.00 0.00 0.00 77 1015.0
20260505054003 45 355 5.2 13.0 0.00 0.00 0.00 74 1014.9
20260505053217 45 344 5.2 17.4 0.00 0.00 0.00 73 1015.1
20260505052008 45 352 5.2 12.2 0.00 0.00 0.00 74 1014.9
20260505051008 45 348 4.3 9.6 0.00 0.00 0.00 74 1014.8
20260505041008 46 344 3.5 7.0 0.00 0.00 0.00 76 1014.7
20260505040008 46 342 3.5 8.7 0.00 0.00 0.00 78 1014.5
20260505035216 45 342 3.5 8.7 0.00 0.00 0.00 79 1014.5
20260505034008 45 336 3.5 7.0 0.00 0.00 0.00 80 1014.5
20260505033008 45 349 2.6 7.0 0.00 0.00 0.00 80 1014.8
20260505032218 45 340 1.7 4.3 0.00 0.00 0.00 80 1014.6
20260505031008 45 322 2.6 6.1 0.00 0.00 0.00 80 1015.0
20260505030008 45 329 1.7 5.2 0.00 0.00 0.00 81 1014.8
20260505025003 44 340 1.7 3.5 0.00 0.00 0.00 81 1014.9
20260505024003 44 343 0.9 2.6 0.00 0.00 0.00 82 1015.0
20260505023008 44 335 1.7 3.5 0.00 0.00 0.00 82 1015.1
20260505022003 45 345 0.9 2.6 0.00 0.00 0.00 82 1015.0
20260505021003 45 341 0.9 3.5 0.00 0.00 0.00 82 1015.2
20260505020008 45 333 1.7 4.3 0.00 0.00 0.00 82 1015.5
20260505015003 45 329 2.6 5.2 0.00 0.00 0.00 83 1015.3
20260505014008 44 334 2.6 6.1 0.00 0.00 0.00 82 1015.1
20260505013008 44 329 2.6 5.2 0.00 0.00 0.00 82 1015.3
20260505012003 44 331 2.6 7.0 0.00 0.00 0.00 79 1015.5
20260505011003 44 332 2.6 4.3 0.00 0.00 0.00 76 1015.6
20260505010008 45 341 2.6 5.2 0.00 0.00 0.00 74 1015.6
20260505005004 45 339 3.5 5.2 0.00 0.00 0.00 76 1015.7
20260505004008 45 341 3.5 5.2 0.00 0.00 0.00 78 1015.9
20260505003003 45 336 2.6 5.2 0.00 0.00 0.00 82 1015.8
20260505002003 45 337 3.5 5.2 0.00 0.00 0.00 82 1015.8
20260505001003 46 336 2.6 5.2 0.00 0.00 0.00 83 1015.9
20260505000008 46 341 3.5 8.7 0.00 0.00 0.00 82 1016.0
20260504235223 46 338 3.5 6.1 0.00 0.00 0.00 83 1016.2
20260504234223 46 335 3.5 6.1 0.00 0.00 0.00 83 1016.1
20260504233223 46 339 3.5 5.2 0.00 0.00 0.00 84 1016.0
20260504232217 46 340 3.5 6.1 0.00 0.00 0.00 85 1016.1
20260504231008 46 340 3.5 6.1 0.00 0.00 0.00 85 1016.0